Simultaneous Nadir Overpasses (SNOs) Predictions

Prediction of SNOs between NOAA-20 and METOP-C Satellite Orbit:

Table of predicted SNOs for the next 14.0 days since TLE Epoch: 11/14/2025
Index Date (NOAA-20) Time (NOAA-20) Lat,Lon (NOAA-20) SZA (NOAA-20 ) Date (METOP-C) Time (METOP-C) Lat,Lon (METOP-C) SZA (METOP-C ) Distance(km) Time Diff (sec)
1 11/26/2025 08:53:35 73.48, 36.81 94.50 11/26/2025 08:54:40 73.44, 39.95 94.38 99.31 65
2 11/26/2025 09:44:17 -73.38,-155.66 85.60 11/26/2025 09:45:24 -73.36,-152.91 85.69 87.58 67
3 11/26/2025 10:34:59 73.17, 12.12 94.19 11/26/2025 10:36:08 73.11, 13.89 94.08 57.53 69
4 11/26/2025 11:25:41 -73.08, 179.63 85.90 11/26/2025 11:26:52 -73.03,-178.96 85.99 45.95 71
5 11/26/2025 12:16:23 72.87, -12.60 93.89 11/26/2025 12:17:36 72.78, -12.15 93.78 17.91 73
6 11/26/2025 13:07:05 -72.78, 154.90 86.21 11/26/2025 13:08:19 -72.76, 155.12 86.25 7.61 74
7 11/26/2025 13:57:50 72.72, -37.66 93.74 11/26/2025 13:58:59 72.71, -37.64 93.72 1.31 69
8 11/26/2025 14:48:34 -72.73, 129.64 86.25 11/26/2025 14:49:41 -72.73, 129.73 86.26 3.08 67
9 11/26/2025 15:39:20 72.72, -63.03 93.75 11/26/2025 15:40:21 72.68, -63.03 93.71 3.78 61
10 11/26/2025 16:30:03 -72.68, 104.37 86.29 11/26/2025 16:31:03 -72.71, 104.34 86.27 3.42 60
11 11/26/2025 17:20:50 72.72, -88.40 93.76 11/26/2025 17:21:42 72.71, -88.32 93.75 3.01 52
12 11/26/2025 18:11:33 -72.68, 79.00 86.28 11/26/2025 18:12:25 -72.68, 78.95 86.28 1.61 52
13 11/26/2025 19:02:19 72.67,-113.67 93.72 11/26/2025 19:03:04 72.69,-113.70 93.74 2.59 45
14 11/26/2025 19:53:03 -72.68, 53.62 86.27 11/26/2025 19:53:47 -72.66, 53.56 86.29 2.65 44
15 11/26/2025 20:43:49 72.66,-139.05 93.73 11/26/2025 20:44:26 72.66,-139.09 93.73 1.61 37
16 11/26/2025 21:34:33 -72.68, 28.25 86.25 11/26/2025 21:35:08 -72.69, 28.28 86.25 1.61 35
17 11/26/2025 22:25:19 72.66,-164.42 93.75 11/26/2025 22:25:47 72.69,-164.38 93.77 3.14 28
18 11/26/2025 23:16:03 -72.67, 2.88 86.24 11/26/2025 23:16:30 -72.66, 2.89 86.26 1.37 27
19 11/27/2025 00:06:49 72.66, 170.21 93.76 11/27/2025 00:07:09 72.67, 170.23 93.76 0.85 20
20 11/27/2025 00:57:33 -72.67, -22.50 86.23 11/27/2025 00:57:51 -72.69, -22.39 86.22 3.84 18
21 11/27/2025 01:48:19 72.66, 144.84 93.77 11/27/2025 01:48:31 72.64, 144.84 93.75 2.37 12
22 11/27/2025 02:39:03 -72.67, -47.87 86.22 11/27/2025 02:39:13 -72.67, -47.78 86.23 2.98 10
23 11/27/2025 03:29:49 72.66, 119.46 93.78 11/27/2025 03:29:52 72.67, 119.56 93.79 3.31 3
24 11/27/2025 04:20:32 -72.62, -73.14 86.26 11/27/2025 04:20:35 -72.64, -73.17 86.24 2.53 3
25 11/27/2025 05:11:19 72.66, 94.09 93.79 11/27/2025 05:11:14 72.64, 94.17 93.78 3.30 5
26 11/27/2025 06:02:02 -72.62, -98.51 86.25 11/27/2025 06:01:57 -72.62, -98.56 86.25 1.62 5
27 11/27/2025 06:52:48 72.61, 68.82 93.75 11/27/2025 06:52:36 72.62, 68.78 93.77 1.72 12
28 11/27/2025 07:43:32 -72.62,-123.88 86.23 11/27/2025 07:43:18 -72.65,-123.84 86.21 3.09 14
29 11/27/2025 08:34:18 72.61, 43.45 93.77 11/27/2025 08:33:58 72.60, 43.39 93.76 2.29 20
30 11/27/2025 09:25:02 -72.62,-149.26 86.22 11/27/2025 09:24:40 -72.62,-149.23 86.22 0.85 22
31 11/27/2025 10:15:48 72.61, 18.07 93.78 11/27/2025 10:15:19 72.62, 18.11 93.79 1.99 29
32 11/27/2025 11:06:32 -72.62,-174.63 86.21 11/27/2025 11:06:02 -72.60,-174.62 86.23 2.38 30
33 11/27/2025 11:57:18 72.61, -7.30 93.79 11/27/2025 11:56:41 72.60, -7.28 93.78 1.18 37
34 11/27/2025 12:48:02 -72.62, 160.00 86.20 11/27/2025 12:47:23 -72.62, 160.09 86.19 3.31 39
35 11/27/2025 13:38:48 72.61, -32.67 93.80 11/27/2025 13:38:03 72.57, -32.67 93.77 3.61 45
36 11/27/2025 14:29:32 -72.62, 134.62 86.19 11/27/2025 14:28:45 -72.60, 134.71 86.20 3.31 47
37 11/27/2025 15:20:18 72.61, -58.05 93.81 11/27/2025 15:19:24 72.60, -57.95 93.81 3.11 54
38 11/27/2025 16:11:01 -72.57, 109.35 86.23 11/27/2025 16:10:07 -72.58, 109.32 86.21 1.68 54
39 11/27/2025 17:01:47 72.55, -83.32 93.77 11/27/2025 17:00:46 72.58, -83.34 93.80 2.65 61
40 11/27/2025 17:52:31 -72.56, 83.98 86.22 11/27/2025 17:51:29 -72.55, 83.93 86.22 2.23 62
41 11/27/2025 18:43:17 72.55,-108.69 93.78 11/27/2025 18:42:08 72.55,-108.73 93.79 1.41 69
42 11/27/2025 19:34:01 -72.56, 58.61 86.20 11/27/2025 19:32:50 -72.58, 58.64 86.18 2.04 71
43 11/27/2025 20:24:44 72.45,-133.86 93.69 11/27/2025 20:23:30 72.48,-134.22 93.73 12.58 74
44 11/27/2025 21:15:27 -72.41, 33.54 86.35 11/27/2025 21:14:14 -72.40, 32.95 86.34 19.89 73
45 11/27/2025 22:06:08 72.14,-158.63 93.38 11/27/2025 22:04:58 72.15,-160.21 93.43 54.08 70
46 11/27/2025 22:56:51 -72.10, 8.77 86.66 11/27/2025 22:55:41 -72.12, 7.07 86.59 58.12 70
47 11/27/2025 23:47:32 71.84, 176.59 93.07 11/27/2025 23:46:26 71.81, 173.82 93.13 95.96 66
48 11/28/2025 00:38:15 -71.80, -16.03 86.97 11/28/2025 00:37:09 -71.79, -18.90 86.89 99.75 66



Historial Predications of SNOs between NOAA-20 and METOP-C
